TimeEDT,TemperatureF,Dew PointF,Humidity,Sea Level PressureIn,VisibilityMPH,Wind Direction,Wind SpeedMPH,Gust SpeedMPH,PrecipitationIn,Events,Conditions,WindDirDegrees,DateUTC
12:53 AM,66.9,57.9,73,29.89,10.0,North,11.5,-,N/A,,Mostly Cloudy,10,2012-09-19 04:53:00
1:53 AM,64.9,55.0,70,29.91,10.0,North,6.9,-,N/A,,Overcast,360,2012-09-19 05:53:00
2:53 AM,63.0,53.1,70,29.90,10.0,North,9.2,-,N/A,,Clear,360,2012-09-19 06:53:00
3:53 AM,62.1,51.1,67,29.91,10.0,North,8.1,-,N/A,,Clear,350,2012-09-19 07:53:00
4:53 AM,61.0,50.0,67,29.93,10.0,North,9.2,-,N/A,,Clear,360,2012-09-19 08:53:00
5:53 AM,60.1,50.0,69,29.94,10.0,North,8.1,-,N/A,,Clear,10,2012-09-19 09:53:00
6:53 AM,60.1,50.0,69,29.96,10.0,North,9.2,-,N/A,,Mostly Cloudy,10,2012-09-19 10:53:00
7:53 AM,59.0,51.1,75,30.00,10.0,North,4.6,-,N/A,,Clear,360,2012-09-19 11:53:00
8:53 AM,63.0,51.1,65,30.03,10.0,NNE,5.8,-,N/A,,Scattered Clouds,30,2012-09-19 12:53:00
9:53 AM,66.0,53.1,63,30.05,10.0,NE,8.1,-,N/A,,Partly Cloudy,50,2012-09-19 13:53:00
10:53 AM,69.1,53.1,57,30.06,10.0,NE,10.4,-,N/A,,Mostly Cloudy,50,2012-09-19 14:53:00
11:53 AM,70.0,54.0,57,30.08,10.0,Variable,4.6,-,N/A,,Mostly Cloudy,0,2012-09-19 15:53:00
12:53 PM,73.0,54.0,51,30.07,10.0,North,6.9,-,N/A,,Clear,10,2012-09-19 16:53:00
1:53 PM,73.9,55.0,52,30.06,10.0,Variable,3.5,-,N/A,,Mostly Cloudy,0,2012-09-19 17:53:00
2:53 PM,75.0,55.9,51,30.06,10.0,East,5.8,-,N/A,,Clear,100,2012-09-19 18:53:00
3:53 PM,75.9,57.9,54,30.04,10.0,ESE,5.8,-,N/A,,Mostly Cloudy,110,2012-09-19 19:53:00
4:53 PM,73.0,57.0,57,30.05,10.0,ESE,6.9,-,N/A,,Mostly Cloudy,120,2012-09-19 20:53:00
5:53 PM,75.0,57.9,55,30.06,10.0,ESE,8.1,-,N/A,,Scattered Clouds,120,2012-09-19 21:53:00
6:53 PM,72.0,57.0,59,30.06,10.0,ESE,6.9,-,N/A,,Clear,110,2012-09-19 22:53:00
7:53 PM,70.0,57.0,63,30.07,10.0,East,3.5,-,N/A,,Clear,100,2012-09-19 23:53:00
9:53 PM,69.1,57.9,68,30.10,10.0,East,4.6,-,N/A,,Mostly Cloudy,100,2012-09-20 01:53:00
10:53 PM,66.9,57.9,73,30.11,10.0,East,4.6,-,N/A,,Clear,80,2012-09-20 02:53:00
11:53 PM,66.0,59.0,78,30.12,10.0,ESE,5.8,-,N/A,,Clear,120,2012-09-20 03:53:00